COSMOS 2251 DEB, 36045

Orbit data source: Space-Track

COSMOS 2251 DEB, 36045 is space debris in LEO originally from a launch on Wed, 16 Jun 1993 UTC launched from the Plesetsk Missile And Space Complex (PKMTR). The debris from Iridium 33, an American commercial communications satellite, has been tracked extensively since its accidental collision with the defunct Russian satellite Cosmos 2251 in 2009. This event, occurring at high speed in low Earth orbit (LEO), generated thousands of pieces of space debris, significantly increasing the risk of further collisions. The Iridium 33 debris cloud has impacted space traffic management and orbital debris mitigation strategies, making it a subject of ongoing study in space situational awareness.

Loading next visibility...
Identifier
36045, 1993-036AXG
Orbit
LEO
Country
Flag of CISCIS
Related business
Manufacturer
Unknown
Mission
Spacecraft
Bus & Motor
Unknown
Mass
Unknown
Launch date (UTC)
1993-06-16 (33 years ago)
Launch vehicle
Unknown
Launch site
Plesetsk Missile And Space Complex (PKMTR)
Object type
Payload
Rocket body
Debris
Shape & HBR
Unknown shape, 0.1 m
Radar Cross Section
Small (<0.1 m²)

Expand to show TLE details & history
Last TLE update: 2 days ago

TLE from 2 days ago
0 COSMOS 2251 DEB
1 36045U 93036AXG 26205.77949160  .00011873  00000-0  17200-2 0  9999
2 36045  73.7621 335.3492 0044237 314.0475  45.7057 14.75479972116875
Epoch: 2026-07-24T18:42Z
TLE epoch observation values (Epoch: 2026-07-24T18:42:28.074Z)
Latitude
0.00006°
Longitude
112.23102°
Altitude
624.646 km
Speed
7.558 km/s
True Right ascension
22h 21m 23s
True Declination
0° 00' 00"
Sunlit
Object was in full shadow at epoch
Visualization orbit readout
Latitude
Unknown
Longitude
Unknown
Altitude
Unknown
Speed
Unknown
Apparent Right ascension
Unknown
Apparent Declination
Unknown
Sunlit
N/A
Visualization observer readout
Local Sidereal Time
16:32:42
Azimuth
Unknown
Elevation
Unknown
Doppler factor
Unknown
Orbital elements
Apogee altitude
672.284 km
Perigee altitude
610.181 km
Semi-major axis
7,019.369 km
Eccentricity
0.00442
Inclination
73.7621°
RAAN
335.3492°
Arg. of periapsis
314.0475°
True anomaly
46.06994°
Mean anomaly
45.7057°
Eccentric anomaly
45.88768°
Mean motion
3.69059 °/min
Orbital period
97.55 mins
BSTAR
0.00172

Documentation

Showing up to 5 results
|